AMC117 LEAL-LICG

Flight info

Callsign AMC117
Flight time N/A
Altitude 39000
Route MAGA2A PAGRE DCT ANB/N0446F400 ROBE1R
Aircraft B736/M-SDE2E3FGHIRWXY/LB1

Departure

Time N/A
Airport Alicante-Elche Miguel Hernández Airport (LEAL)

Arrival

Time 2026-04-12 16:46
Airport Pantelleria Airport (LICG)
Time Latitude Longitude Altitude Speed Heading
2026-04-12 14:56 37.98940 1.33129 35400 ft 460 kts 93°
2026-04-12 14:56 37.98696 1.37133 35691 ft 459 kts 94°
2026-04-12 14:56 37.98451 1.41148 36082 ft 456 kts 94°
2026-04-12 14:56 37.98204 1.45177 36258 ft 459 kts 94°
2026-04-12 14:57 37.97955 1.49225 36484 ft 460 kts 94°
2026-04-12 14:57 37.97703 1.53281 36709 ft 463 kts 94°
2026-04-12 14:57 37.97449 1.57373 36877 ft 466 kts 94°
2026-04-12 14:57 37.97197 1.61406 37190 ft 464 kts 94°
2026-04-12 14:58 37.96939 1.65497 37330 ft 468 kts 94°
2026-04-12 14:58 37.96679 1.69595 37671 ft 465 kts 95°
2026-04-12 14:58 37.96419 1.73678 38039 ft 464 kts 94°
2026-04-12 14:58 37.96157 1.77764 38346 ft 465 kts 95°
2026-04-12 14:59 37.95894 1.81860 38632 ft 466 kts 95°
2026-04-12 14:59 37.95629 1.85953 38677 ft 466 kts 95°
2026-04-12 14:59 37.95099 1.94074 38742 ft 463 kts 95°
2026-04-12 15:00 37.94282 2.06424 38730 ft 472 kts 95°
2026-04-12 15:01 37.93727 2.14699 38727 ft 470 kts 95°
2026-04-12 15:01 37.93167 2.22971 38746 ft 473 kts 95°
2026-04-12 15:02 37.92600 2.31256 38719 ft 476 kts 95°
2026-04-12 15:02 37.92029 2.39515 38703 ft 465 kts 95°
2026-04-12 15:03 37.91459 2.47673 38711 ft 464 kts 95°
2026-04-12 15:03 37.90884 2.55814 38719 ft 464 kts 95°
2026-04-12 15:04 37.90302 2.63978 38718 ft 465 kts 95°
2026-04-12 15:04 37.89719 2.72077 38716 ft 466 kts 96°
2026-04-12 15:05 37.89126 2.80245 38712 ft 466 kts 96°
2026-04-12 15:05 37.88524 2.88450 38721 ft 467 kts 96°
2026-04-12 15:06 37.87915 2.96666 38705 ft 469 kts 96°
2026-04-12 15:06 37.87301 3.04887 38706 ft 469 kts 96°
2026-04-12 15:07 37.86683 3.13066 38719 ft 470 kts 96°
2026-04-12 15:07 37.86056 3.21300 38700 ft 470 kts 96°
2026-04-12 15:08 37.85422 3.29536 38689 ft 469 kts 96°
2026-04-12 15:08 37.84785 3.37747 38690 ft 468 kts 96°
2026-04-12 15:09 37.84144 3.45930 38695 ft 467 kts 96°
2026-04-12 15:09 37.83498 3.54113 38689 ft 466 kts 96°
2026-04-12 15:10 37.82851 3.62219 38688 ft 465 kts 96°
2026-04-12 15:10 37.82195 3.70376 38689 ft 465 kts 96°
2026-04-12 15:11 37.81535 3.78516 38693 ft 464 kts 96°
2026-04-12 15:11 37.80873 3.86603 38673 ft 465 kts 96°
2026-04-12 15:12 37.80202 3.94733 38682 ft 465 kts 96°
2026-04-12 15:12 37.79525 4.02866 38679 ft 465 kts 97°
2026-04-12 15:13 37.78841 4.11019 38675 ft 466 kts 97°
2026-04-12 15:13 37.78149 4.19187 38666 ft 467 kts 97°
2026-04-12 15:14 37.77452 4.27358 38656 ft 468 kts 97°
2026-04-12 15:14 37.76747 4.35546 38664 ft 469 kts 97°
2026-04-12 15:15 37.76035 4.43759 38656 ft 471 kts 97°
2026-04-12 15:15 37.75319 4.51944 38654 ft 472 kts 97°
2026-04-12 15:16 37.74592 4.60187 38653 ft 472 kts 97°
2026-04-12 15:16 37.73858 4.68447 38646 ft 473 kts 97°
2026-04-12 15:17 37.73118 4.76708 38641 ft 472 kts 97°
2026-04-12 15:17 37.72373 4.84954 38642 ft 472 kts 97°
2026-04-12 15:18 37.71625 4.93188 38636 ft 471 kts 97°
2026-04-12 15:18 37.70661 5.01296 38625 ft 469 kts 107°
2026-04-12 15:19 37.68455 5.09011 38626 ft 466 kts 112°
2026-04-12 15:19 37.66101 5.16635 38629 ft 465 kts 112°
2026-04-12 15:20 37.63782 5.24242 38619 ft 464 kts 112°
2026-04-12 15:20 37.61497 5.31834 38621 ft 463 kts 112°
2026-04-12 15:21 37.59234 5.39377 38614 ft 462 kts 112°
2026-04-12 15:21 37.56956 5.46952 38618 ft 462 kts 112°
2026-04-12 15:22 37.54669 5.54528 38622 ft 462 kts 112°
2026-04-12 15:22 37.52377 5.62103 38620 ft 463 kts 112°
2026-04-12 15:23 37.50071 5.69697 38616 ft 464 kts 112°
2026-04-12 15:23 37.47760 5.77290 38617 ft 464 kts 113°
2026-04-12 15:24 37.45833 5.83604 38619 ft 465 kts 113°
2026-04-12 15:24 37.43128 5.92447 38616 ft 466 kts 113°
2026-04-12 15:25 37.40792 6.00060 38616 ft 466 kts 113°
2026-04-12 15:25 37.38844 6.06391 38615 ft 466 kts 113°
2026-04-12 15:26 37.36498 6.13998 38619 ft 466 kts 113°
2026-04-12 15:26 37.34149 6.21595 38616 ft 466 kts 113°
2026-04-12 15:27 37.31802 6.29165 38614 ft 465 kts 113°
2026-04-12 15:27 37.29448 6.36740 38605 ft 465 kts 114°
2026-04-12 15:28 37.27093 6.44295 38614 ft 464 kts 114°
2026-04-12 15:28 37.24751 6.51788 38616 ft 464 kts 114°
2026-04-12 15:29 37.22392 6.59315 38606 ft 463 kts 114°
2026-04-12 15:29 37.20024 6.66851 38609 ft 463 kts 114°
2026-04-12 15:30 37.17655 6.74369 38606 ft 463 kts 114°
2026-04-12 15:30 37.15282 6.81884 38608 ft 463 kts 114°
2026-04-12 15:31 37.12903 6.89397 38601 ft 463 kts 115°
2026-04-12 15:31 37.10535 6.96854 38605 ft 463 kts 115°
2026-04-12 15:32 37.08148 7.04353 38604 ft 464 kts 115°
2026-04-12 15:32 37.05753 7.11855 38604 ft 464 kts 115°
2026-04-12 15:33 37.03351 7.19363 38599 ft 464 kts 115°
2026-04-12 15:33 37.00943 7.26868 38584 ft 464 kts 115°
2026-04-12 15:34 36.98529 7.34373 38587 ft 465 kts 116°
2026-04-12 15:34 36.96125 7.41828 38596 ft 466 kts 116°
2026-04-12 15:35 36.93693 7.49349 38596 ft 467 kts 116°
2026-04-12 15:35 36.91253 7.56876 38573 ft 468 kts 116°
2026-04-12 15:36 36.88802 7.64422 38559 ft 469 kts 116°
2026-04-12 15:36 36.86341 7.71979 38555 ft 469 kts 116°
2026-04-12 15:37 36.84092 7.79655 38545 ft 475 kts 106°
2026-04-12 15:37 36.83534 7.87909 38550 ft 483 kts 88°
2026-04-12 15:38 36.84121 7.96221 38556 ft 484 kts 87°
2026-04-12 15:38 36.84781 8.04655 38555 ft 485 kts 87°
2026-04-12 15:39 36.85386 8.13054 38566 ft 486 kts 88°
2026-04-12 15:39 36.85948 8.21435 38567 ft 488 kts 88°
2026-04-12 15:40 36.86499 8.29894 38557 ft 489 kts 88°
2026-04-12 15:40 36.86954 8.36926 38558 ft 489 kts 88°
2026-04-12 15:41 36.87588 8.46827 38564 ft 490 kts 88°
2026-04-12 15:41 36.88127 8.55334 38547 ft 491 kts 88°
2026-04-12 15:42 36.88661 8.63843 38541 ft 491 kts 88°
2026-04-12 15:42 36.89189 8.72364 38517 ft 492 kts 89°
2026-04-12 15:43 36.89966 8.85073 38497 ft 490 kts 89°
2026-04-12 15:43 36.90476 8.93568 38511 ft 489 kts 89°
2026-04-12 15:44 36.90980 9.02027 38504 ft 488 kts 89°
2026-04-12 15:44 36.91476 9.10471 38500 ft 486 kts 89°
2026-04-12 15:45 36.91964 9.18873 38531 ft 484 kts 90°
2026-04-12 15:45 36.92441 9.27204 38548 ft 483 kts 90°
2026-04-12 15:46 36.93148 9.39730 38561 ft 481 kts 90°
2026-04-12 15:47 36.93611 9.48073 38535 ft 480 kts 90°
2026-04-12 15:47 36.93840 9.52249 38320 ft 485 kts 91°
2026-04-12 15:47 36.94069 9.56476 37686 ft 487 kts 91°
2026-04-12 15:47 36.94298 9.60681 37100 ft 485 kts 91°
2026-04-12 15:48 36.94526 9.64878 36449 ft 483 kts 91°
2026-04-12 15:48 36.94751 9.69067 35849 ft 481 kts 91°
2026-04-12 15:48 36.94974 9.73214 35409 ft 475 kts 92°
2026-04-12 15:48 36.95194 9.77325 34919 ft 471 kts 92°
2026-04-12 15:49 36.95406 9.81343 34455 ft 467 kts 92°
2026-04-12 15:49 36.95618 9.85381 33940 ft 464 kts 93°
2026-04-12 15:49 36.95826 9.89392 33475 ft 460 kts 93°
2026-04-12 15:49 36.96030 9.93362 32943 ft 456 kts 93°
2026-04-12 15:50 36.96235 9.97356 32451 ft 452 kts 93°
2026-04-12 15:50 36.96431 10.01206 31992 ft 448 kts 93°
2026-04-12 15:50 36.96626 10.05074 31544 ft 443 kts 94°
2026-04-12 15:50 36.96819 10.08900 31105 ft 439 kts 94°
2026-04-12 15:51 36.97008 10.12703 30662 ft 435 kts 94°
2026-04-12 15:51 36.97195 10.16458 30238 ft 431 kts 94°
2026-04-12 15:51 36.97378 10.20185 29814 ft 427 kts 94°
2026-04-12 15:51 36.97559 10.23883 29285 ft 423 kts 95°
2026-04-12 15:52 36.97737 10.27529 28860 ft 418 kts 95°
2026-04-12 15:52 36.97912 10.31143 28423 ft 413 kts 95°
2026-04-12 15:52 36.98085 10.34724 27992 ft 409 kts 95°
2026-04-12 15:52 36.98251 10.38211 27581 ft 405 kts 95°
2026-04-12 15:53 36.98417 10.41712 27143 ft 401 kts 95°
2026-04-12 15:53 36.98580 10.45183 26722 ft 398 kts 95°
2026-04-12 15:53 36.98740 10.48618 26312 ft 394 kts 95°
2026-04-12 15:53 36.98899 10.52027 25903 ft 391 kts 95°
2026-04-12 15:54 36.99055 10.55411 25498 ft 388 kts 95°
2026-04-12 15:54 36.99208 10.58758 25060 ft 385 kts 95°
2026-04-12 15:54 36.99360 10.62086 24690 ft 381 kts 95°
2026-04-12 15:54 36.99510 10.65389 24306 ft 378 kts 95°
2026-04-12 15:55 36.99657 10.68664 23939 ft 375 kts 95°
2026-04-12 15:55 36.99802 10.71914 23552 ft 372 kts 95°
2026-04-12 15:55 36.99946 10.75137 23172 ft 370 kts 95°
2026-04-12 15:55 37.00088 10.78341 22719 ft 367 kts 95°
2026-04-12 15:56 37.00226 10.81478 22313 ft 363 kts 95°
2026-04-12 15:56 37.00364 10.84613 21920 ft 359 kts 95°
2026-04-12 15:56 37.00500 10.87722 21550 ft 355 kts 95°
2026-04-12 15:56 37.00633 10.90791 21168 ft 352 kts 95°
2026-04-12 15:57 37.00763 10.93833 20782 ft 349 kts 95°
2026-04-12 15:57 37.00892 10.96855 20403 ft 346 kts 95°
2026-04-12 15:57 37.01019 10.99843 20029 ft 343 kts 95°
2026-04-12 15:57 37.01144 11.02815 19669 ft 340 kts 95°
2026-04-12 15:58 37.01267 11.05759 19309 ft 338 kts 95°
2026-04-12 15:58 37.01389 11.08681 18946 ft 335 kts 95°
2026-04-12 15:58 37.01509 11.11583 18586 ft 333 kts 95°
2026-04-12 15:58 37.01627 11.14470 18235 ft 331 kts 95°
2026-04-12 15:59 37.01744 11.17331 17857 ft 329 kts 95°
2026-04-12 15:59 37.01860 11.20183 17458 ft 327 kts 95°
2026-04-12 15:59 37.01975 11.23007 17077 ft 324 kts 95°
2026-04-12 15:59 37.02089 11.25817 16733 ft 321 kts 95°
2026-04-12 16:00 37.02200 11.28594 16377 ft 318 kts 95°
2026-04-12 16:00 37.02309 11.31311 16017 ft 315 kts 96°
2026-04-12 16:00 37.02417 11.34030 15701 ft 311 kts 96°
2026-04-12 16:00 37.02523 11.36726 15350 ft 309 kts 96°
2026-04-12 16:01 37.02628 11.39400 15010 ft 307 kts 96°
2026-04-12 16:01 37.02731 11.42062 14671 ft 305 kts 96°
2026-04-12 16:01 37.02833 11.44697 14337 ft 302 kts 96°
2026-04-12 16:01 37.02933 11.47324 14008 ft 300 kts 97°
2026-04-12 16:02 37.03033 11.49930 13678 ft 299 kts 97°
2026-04-12 16:02 37.03131 11.52519 13339 ft 297 kts 97°
2026-04-12 16:02 37.03228 11.55100 12978 ft 296 kts 96°
2026-04-12 16:02 37.03324 11.57662 12636 ft 293 kts 96°
2026-04-12 16:03 37.03419 11.60200 12311 ft 290 kts 96°
2026-04-12 16:03 37.03513 11.62708 12006 ft 287 kts 96°
2026-04-12 16:03 37.03604 11.65166 11683 ft 285 kts 96°
2026-04-12 16:03 37.03694 11.67636 11363 ft 283 kts 96°
2026-04-12 16:04 37.03783 11.70074 11047 ft 279 kts 96°
2026-04-12 16:04 37.03871 11.72487 10728 ft 277 kts 96°
2026-04-12 16:04 37.03957 11.74884 10415 ft 275 kts 96°
2026-04-12 16:04 37.04042 11.77270 10111 ft 273 kts 95°
2026-04-12 16:05 37.04127 11.79643 9817 ft 271 kts 95°
2026-04-12 16:05 37.04211 11.81954 9722 ft 261 kts 95°
2026-04-12 16:05 37.04291 11.84190 9543 ft 255 kts 96°
2026-04-12 16:05 37.04368 11.86404 9260 ft 253 kts 96°
2026-04-12 16:06 37.04444 11.88599 8951 ft 251 kts 96°
2026-04-12 16:06 37.04519 11.90791 8694 ft 254 kts 96°
2026-04-12 16:06 37.04593 11.93033 8413 ft 262 kts 95°
2026-04-12 16:06 37.04452 11.95288 8092 ft 257 kts 116°
2026-04-12 16:07 37.03535 11.97096 7824 ft 241 kts 141°
2026-04-12 16:07 37.02183 11.98259 7551 ft 233 kts 159°
2026-04-12 16:07 37.00632 11.98813 7272 ft 230 kts 167°
2026-04-12 16:07 36.99076 11.99278 6977 ft 229 kts 167°
2026-04-12 16:08 36.97530 11.99737 6689 ft 228 kts 168°
2026-04-12 16:08 36.95988 12.00198 6401 ft 227 kts 168°
2026-04-12 16:08 36.94467 12.00653 6115 ft 227 kts 168°
2026-04-12 16:08 36.92918 12.00848 5794 ft 225 kts 188°
2026-04-12 16:09 36.91446 12.00174 5516 ft 226 kts 206°
2026-04-12 16:09 36.90259 11.98899 5360 ft 226 kts 226°
2026-04-12 16:09 36.89390 11.97295 5261 ft 219 kts 230°
2026-04-12 16:09 36.88569 11.95721 5157 ft 211 kts 229°
2026-04-12 16:10 36.87783 11.94217 5054 ft 203 kts 229°
2026-04-12 16:10 36.87025 11.92773 4974 ft 193 kts 230°
2026-04-12 16:10 36.86479 11.91271 4879 ft 198 kts 249°
2026-04-12 16:10 36.86167 11.89569 4703 ft 205 kts 249°
2026-04-12 16:11 36.85814 11.87816 4392 ft 209 kts 249°
2026-04-12 16:11 36.85446 11.86048 4073 ft 211 kts 247°
2026-04-12 16:11 36.85095 11.84256 3768 ft 214 kts 248°
2026-04-12 16:11 36.84742 11.82436 3439 ft 216 kts 248°
2026-04-12 16:12 36.84506 11.81228 3320 ft 213 kts 247°
2026-04-12 16:12 36.84193 11.79482 3336 ft 199 kts 248°
2026-04-12 16:12 36.83920 11.77840 3359 ft 191 kts 249°
2026-04-12 16:12 36.83641 11.76214 3397 ft 194 kts 248°
2026-04-12 16:13 36.83342 11.74541 3395 ft 201 kts 249°
2026-04-12 16:13 36.83019 11.72826 3392 ft 203 kts 248°
2026-04-12 16:13 36.82717 11.71114 3386 ft 200 kts 249°
2026-04-12 16:13 36.82411 11.69439 3386 ft 196 kts 248°
2026-04-12 16:14 36.82112 11.67780 3381 ft 196 kts 248°
2026-04-12 16:14 36.81798 11.66112 3402 ft 201 kts 249°
2026-04-12 16:14 36.81459 11.64388 3409 ft 209 kts 248°
2026-04-12 16:14 36.81105 11.62580 3402 ft 218 kts 246°
2026-04-12 16:15 36.80415 11.60949 3397 ft 210 kts 219°
2026-04-12 16:15 36.79143 11.60143 3379 ft 208 kts 188°
2026-04-12 16:15 36.77713 11.60437 3395 ft 217 kts 157°
2026-04-12 16:15 36.76588 11.61765 3398 ft 232 kts 130°
2026-04-12 16:16 36.75783 11.63492 3379 ft 235 kts 122°
2026-04-12 16:16 36.75457 11.65499 3382 ft 242 kts 92°
2026-04-12 16:16 36.75890 11.67526 3387 ft 240 kts 79°
2026-04-12 16:16 36.76436 11.69444 3367 ft 229 kts 80°
2026-04-12 16:17 36.76932 11.71283 3372 ft 220 kts 82°
2026-04-12 16:17 36.77415 11.73091 3376 ft 219 kts 80°
2026-04-12 16:17 36.77901 11.74902 3383 ft 220 kts 79°
2026-04-12 16:17 36.78361 11.76732 3399 ft 219 kts 87°
2026-04-12 16:18 36.78644 11.78585 3410 ft 217 kts 89°
2026-04-12 16:18 36.78893 11.80455 3381 ft 221 kts 90°
2026-04-12 16:18 36.79176 11.82392 3111 ft 227 kts 88°
2026-04-12 16:18 36.79482 11.84262 3015 ft 213 kts 88°
2026-04-12 16:19 36.79766 11.85981 2969 ft 195 kts 88°
2026-04-12 16:19 36.80033 11.87637 3026 ft 192 kts 89°
2026-04-12 16:19 36.80319 11.89279 3049 ft 195 kts 87°
2026-04-12 16:19 36.80574 11.90925 2925 ft 193 kts 89°
2026-04-12 16:20 36.80743 11.92521 2769 ft 174 kts 102°
2026-04-12 16:20 36.80497 11.93868 2549 ft 151 kts 130°
2026-04-12 16:20 36.79760 11.94706 2221 ft 144 kts 159°
2026-04-12 16:20 36.78784 11.94757 1917 ft 146 kts 193°
2026-04-12 16:21 36.77973 11.93965 1713 ft 158 kts 222°
2026-04-12 16:21 36.77573 11.92595 1387 ft 179 kts 250°
2026-04-12 16:21 36.77605 11.90976 1144 ft 189 kts 269°
2026-04-12 16:21 36.78002 11.89426 1058 ft 187 kts 293°
2026-04-12 16:22 36.78738 11.88118 951 ft 183 kts 312°
2026-04-12 16:22 36.79790 11.87294 764 ft 175 kts 357°
2026-04-12 16:22 36.80825 11.87452 723 ft 129 kts 49°
2026-04-12 16:22 36.81228 11.88208 519 ft 97 kts 97°
2026-04-12 16:23 36.81109 11.88967 378 ft 82 kts 113°
2026-04-12 16:23 36.80870 11.89649 151 ft 94 kts 115°
2026-04-12 16:23 36.80698 11.90414 230 ft 87 kts 95°
2026-04-12 16:23 36.80789 11.91202 153 ft 103 kts 87°
2026-04-12 16:24 36.80919 11.92086 366 ft 99 kts 88°
2026-04-12 16:24 36.81029 11.92940 562 ft 101 kts 91°
2026-04-12 16:24 36.81091 11.93763 761 ft 92 kts 94°
2026-04-12 16:24 36.81169 11.94568 735 ft 101 kts 83°
2026-04-12 16:25 36.81267 11.95477 884 ft 111 kts 96°
2026-04-12 16:25 36.81427 11.96499 1718 ft 133 kts 90°
2026-04-12 16:25 36.81959 11.97737 2291 ft 197 kts 55°
2026-04-12 16:25 36.83237 11.98716 3073 ft 236 kts 18°
2026-04-12 16:26 36.84938 11.98845 3647 ft 245 kts 343°
2026-04-12 16:26 36.86301 11.97813 4295 ft 232 kts 305°
2026-04-12 16:26 36.87148 11.96066 4577 ft 240 kts 281°
2026-04-12 16:26 36.87414 11.93964 4608 ft 255 kts 261°
2026-04-12 16:27 36.87046 11.91740 4821 ft 257 kts 246°
2026-04-12 16:27 36.86415 11.89755 5492 ft 243 kts 239°
2026-04-12 16:27 36.85741 11.87982 6399 ft 194 kts 235°
2026-04-12 16:27 36.85081 11.86399 6483 ft 210 kts 233°
2026-04-12 16:28 36.84367 11.84798 6017 ft 215 kts 233°
2026-04-12 16:28 36.83603 11.83143 5409 ft 222 kts 233°
2026-04-12 16:28 36.82780 11.81479 4884 ft 219 kts 231°
2026-04-12 16:28 36.82035 11.80046 4958 ft 193 kts 230°
2026-04-12 16:29 36.81180 11.78683 4371 ft 198 kts 217°
2026-04-12 16:29 36.79975 11.77934 3752 ft 200 kts 188°
2026-04-12 16:29 36.78654 11.78159 3677 ft 184 kts 161°
2026-04-12 16:29 36.77669 11.79109 3286 ft 188 kts 134°
2026-04-12 16:30 36.77222 11.80740 2668 ft 209 kts 101°
2026-04-12 16:30 36.77517 11.82549 2115 ft 223 kts 75°
2026-04-12 16:30 36.78219 11.84272 1570 ft 219 kts 71°
2026-04-12 16:30 36.78975 11.85772 1613 ft 192 kts 65°
2026-04-12 16:31 36.79785 11.87014 1415 ft 177 kts 62°
2026-04-12 16:31 36.80460 11.88145 1252 ft 149 kts 75°
2026-04-12 16:31 36.80828 11.89210 1228 ft 119 kts 89°
2026-04-12 16:31 36.80947 11.90211 1356 ft 113 kts 98°
2026-04-12 16:32 36.81036 11.91182 1737 ft 123 kts 104°
2026-04-12 16:32 36.80938 11.92232 1701 ft 122 kts 110°
2026-04-12 16:32 36.80973 11.93338 1462 ft 133 kts 95°
2026-04-12 16:32 36.81197 11.94461 1017 ft 129 kts 90°
2026-04-12 16:33 36.81388 11.95427 676 ft 94 kts 95°
2026-04-12 16:33 36.81536 11.96283 788 ft 113 kts 85°
2026-04-12 16:33 36.82093 11.97034 1519 ft 130 kts 41°
2026-04-12 16:33 36.82959 11.97499 2012 ft 137 kts 37°
2026-04-12 16:34 36.83676 11.98398 2002 ft 164 kts 78°
2026-04-12 16:34 36.84371 11.99609 1909 ft 192 kts 45°
2026-04-12 16:34 36.85703 12.00063 2411 ft 213 kts 356°
2026-04-12 16:34 36.87120 11.99471 2851 ft 214 kts 318°
2026-04-12 16:35 36.87993 11.98085 2994 ft 198 kts 279°
2026-04-12 16:35 36.88164 11.96470 3008 ft 183 kts 261°
2026-04-12 16:35 36.88191 11.94887 2995 ft 181 kts 259°
2026-04-12 16:35 36.88225 11.93325 2988 ft 180 kts 259°
2026-04-12 16:36 36.88274 11.91768 2991 ft 179 kts 260°
2026-04-12 16:36 36.88141 11.90291 2992 ft 161 kts 237°
2026-04-12 16:36 36.87751 11.88960 2999 ft 166 kts 240°
2026-04-12 16:36 36.87318 11.87632 2993 ft 164 kts 239°
2026-04-12 16:37 36.86869 11.86343 2986 ft 160 kts 237°
2026-04-12 16:37 36.86452 11.85072 2978 ft 157 kts 237°
2026-04-12 16:37 36.86041 11.83819 2977 ft 153 kts 232°
2026-04-12 16:37 36.85303 11.83014 2927 ft 139 kts 191°
2026-04-12 16:38 36.84382 11.83122 2712 ft 134 kts 167°
2026-04-12 16:38 36.83511 11.83441 2457 ft 126 kts 166°
2026-04-12 16:38 36.82692 11.83726 2201 ft 118 kts 166°
2026-04-12 16:38 36.81918 11.83975 1962 ft 112 kts 161°
2026-04-12 16:39 36.81414 11.84719 1942 ft 134 kts 113°
2026-04-12 16:39 36.81279 11.85905 1842 ft 134 kts 111°
2026-04-12 16:39 36.81111 11.87015 1786 ft 127 kts 112°
2026-04-12 16:39 36.80882 11.88072 1791 ft 126 kts 117°
2026-04-12 16:40 36.80653 11.89128 1783 ft 128 kts 108°
2026-04-12 16:40 36.80522 11.90216 1938 ft 129 kts 110°
2026-04-12 16:40 36.80530 11.91401 1770 ft 144 kts 91°
2026-04-12 16:40 36.80819 11.92604 1432 ft 140 kts 86°
2026-04-12 16:41 36.81064 11.93711 1095 ft 128 kts 93°
2026-04-12 16:41 36.81241 11.94777 817 ft 123 kts 92°
2026-04-12 16:41 36.81406 11.95770 757 ft 111 kts 94°
2026-04-12 16:41 36.81658 11.96810 1035 ft 144 kts 68°
2026-04-12 16:42 36.82482 11.97672 1018 ft 160 kts 39°
2026-04-12 16:42 36.83624 11.97904 933 ft 182 kts
2026-04-12 16:42 36.84795 11.97330 913 ft 174 kts 325°
2026-04-12 16:43 36.86073 11.93344 1741 ft 157 kts 240°
2026-04-12 16:43 36.85572 11.92246 1737 ft 138 kts 216°
2026-04-12 16:43 36.84854 11.91479 1477 ft 135 kts 201°
2026-04-12 16:44 36.84087 11.90867 1360 ft 125 kts 193°
2026-04-12 16:44 36.83313 11.90587 1228 ft 112 kts 174°
2026-04-12 16:44 36.82557 11.90753 1018 ft 111 kts 155°
2026-04-12 16:44 36.81941 11.91277 956 ft 109 kts 136°
2026-04-12 16:45 36.81516 11.92058 950 ft 113 kts 121°
2026-04-12 16:45 36.81267 11.92987 937 ft 112 kts 114°
2026-04-12 16:45 36.81181 11.93960 787 ft 116 kts 102°
2026-04-12 16:45 36.81274 11.95026 663 ft 137 kts 85°
2026-04-12 16:46 36.81503 11.96097 733 ft 130 kts 86°
2026-04-12 16:46 36.81714 11.97169 654 ft 116 kts 88°
2026-04-12 16:46 36.81814 11.97575 661 ft 1 kts 30°
2026-04-12 16:46 36.81817 11.97588 661 ft 2 kts 126°
2026-04-12 16:47 36.81801 11.97583 662 ft 3 kts 197°
2026-04-12 16:47 36.81774 11.97550 661 ft 8 kts 247°
2026-04-12 16:47 36.81756 11.97471 660 ft 11 kts 256°
2026-04-12 16:47 36.81729 11.97336 652 ft 22 kts 257°
2026-04-12 16:48 36.81692 11.97133 649 ft 19 kts 266°
2026-04-12 16:48 36.81738 11.96968 636 ft 18 kts 301°
2026-04-12 16:48 36.81787 11.96863 633 ft 12 kts 325°
2026-04-12 16:48 36.81861 11.96892 630 ft 11 kts 27°
2026-04-12 16:49 36.81881 11.96895 630 ft 2 kts 348°
2026-04-12 16:49 36.81893 11.96880 630 ft 3 kts 308°
2026-04-12 16:49 36.81902 11.96858 630 ft 3 kts 297°
2026-04-12 16:49 36.81916 11.96862 630 ft 3 kts 73°
2026-04-12 16:50 36.81919 11.96874 630 ft 0 kts 72°
2026-04-12 16:50 36.81919 11.96873 630 ft 0 kts 72°
2026-04-12 17:02 36.81919 11.96872 630 ft 0 kts 72°